Location: Big Meadows
(38.5260°N, 78.4400°W)
Time: 23:53:26
(UTC-04:00)

Amateur Radio Satellites - All Passes

Search period start: 30 May 2016 23:23
Search period end: 31 May 2016 23:23
Location: Big Meadows, 38.5260°N, 78.4400°W

Satellite Date Start Highest point End Downlink Frequencies (MHz)
Time Altitude Azimuth
AIST 2 30 May 23:26:45 23:30:11 25° 248° (WSW) 23:33:36 435.215
GONETS M04 30 May 23:30:52 23:38:46 37° 287° (WNW) 23:46:43
UKube-1 30 May 23:31:45 23:35:09 23° 68° (ENE) 23:38:33 .
CUSAT 1 30 May 23:33:05 23:40:16 54° 268° (W) 23:46:01 437.405
50 SAT 30 May 23:33:15 23:36:34 34° 72° (ENE) 23:39:54 437.505
NANOSAT C BR1 30 May 23:36:38 23:37:56 11° 91° (E) 23:39:14 145.865
PHONESAT 2.4 30 May 23:40:52 23:43:58 57° 1° (N) 23:47:04 2401.200-2431.200
SO-50 30 May 23:41:17 23:45:56 46° 116° (ESE) 23:50:37 436.795
AISAT 30 May 23:42:30 23:46:46 47° 73° (ENE) 23:51:04 437.250
DANDE 30 May 23:58:31 00:06:50 71° 265° (W) 00:13:56 436.750
HUMSAT D 31 May 00:00:09 00:02:00 13° 268° (W) 00:03:52 437.325/437.525
DUCHIFAT 1 31 May 00:11:27 00:15:04 28° 97° (E) 00:18:39 145.980
BUGSAT 1 31 May 00:15:52 00:17:49 13° 92° (E) 00:19:45 437.445
UNISAT 6 31 May 00:17:32 00:21:29 35° 289° (WNW) 00:25:29 437.425
TIGRISAT 31 May 00:23:55 00:27:45 32° 289° (WNW) 00:31:38 435.000
DX 1 31 May 00:24:09 00:28:31 73° 258° (WSW) 00:32:55 434.975-435.025
CUBEBUG 1 31 May 00:25:29 00:29:51 58° 259° (W) 00:34:14 437.445
JAS-2 31 May 00:34:56 00:38:21 14° 85° (E) 00:41:35 435.910
SPROUT 31 May 00:35:50 00:40:06 68° 75° (ENE) 00:44:22 437.525
ESTCUBE 1 31 May 00:36:01 00:40:01 31° 263° (W) 00:44:03 437.505/2401.250
VELOX 1 31 May 00:42:25 00:46:34 38° 261° (W) 00:50:46 145.980
TISAT 1 31 May 00:47:26 00:50:50 24° 69° (ENE) 00:54:14 437.305
Cosmos 2499 31 May 00:52:07 00:56:17 15° 298° (WNW) 01:00:38 435.465 / 435.565
POPSAT HIP 1 31 May 00:53:25 00:57:38 82° 285° (WNW) 01:01:49 437.405
QB50P1 31 May 00:53:28 00:57:40 80° 286° (WNW) 01:01:52 145.935-145.965
RS-15 31 May 00:56:32 01:07:44 38° 41° (NE) 01:18:54 29.354- 29.394
QB50P2 31 May 00:57:07 01:01:18 68° 285° (WNW) 01:05:28 145.880/145.840
POLYITAN 1 31 May 00:59:36 01:03:46 67° 285° (WNW) 01:07:56 437.675
ANTELSAT 31 May 01:00:10 01:02:17 14° 295° (WNW) 01:04:26 437.575/2403.000
UKube-1 31 May 01:07:15 01:11:01 29° 263° (W) 01:14:49 .
50 SAT 31 May 01:08:42 01:10:25 13° 267° (W) 01:12:08 437.505
NANOSAT C BR1 31 May 01:09:53 01:13:58 53° 286° (WNW) 01:18:02 145.865
PHONESAT 2.4 31 May 01:17:40 01:20:47 71° 197° (SSW) 01:23:54 2401.200-2431.200
AISAT 31 May 01:20:58 01:23:28 15° 267° (W) 01:26:00 437.250
SO-50 31 May 01:22:41 01:26:38 24° 313° (NW) 01:30:35 436.795
SWISSCUBE 31 May 01:37:52 01:41:16 20° 66° (ENE) 01:44:41 437.505
DANDE 31 May 01:45:03 01:47:57 12° 285° (WNW) 01:50:45 436.750
ITUPSAT 1 31 May 01:45:54 01:49:26 21° 66° (ENE) 01:53:00 437.325
DUCHIFAT 1 31 May 01:47:23 01:50:36 22° 292° (WNW) 01:53:48 145.980
BUGSAT 1 31 May 01:49:35 01:53:23 41° 287° (WNW) 01:57:09 437.445
YUBILEINY 31 May 01:55:57 02:01:19 17° 63° (ENE) 02:06:39 435.215
ISS 31 May 02:03:59 02:06:22 18° 24° (NNE) 02:08:45 145.825
BEESAT 31 May 02:06:06 02:10:22 34° 70° (ENE) 02:14:39 436.000
Oscar 19 31 May 02:14:35 02:19:26 41° 98° (E) 02:24:15 437.125/150
JAS-2 31 May 02:17:08 02:24:28 88° 283° (WNW) 02:30:54 435.910
TISAT 1 31 May 02:22:50 02:26:23 26° 264° (W) 02:29:55 437.305
Cosmos 2491 31 May 02:51:48 02:57:38 20° 79° (E) 03:03:27 435.465 / 435.565
PHONESAT 2.4 31 May 02:55:11 02:57:10 16° 213° (SSW) 02:59:08 2401.200-2431.200
ITAMSAT 1 31 May 03:05:10 03:08:52 19° 94° (E) 03:12:33 435.822/435.867
Gurwin Techsat 1B 31 May 03:06:53 03:12:07 55° 100° (E) 03:17:18 435.225
RS-15 31 May 03:09:03 03:21:19 74° 244° (WSW) 03:33:27 29.354- 29.394
SWISSCUBE 31 May 03:14:17 03:18:45 41° 261° (W) 03:23:16 437.505
ITUPSAT 1 31 May 03:22:35 03:27:00 38° 262° (W) 03:31:28 437.325
AO-7 31 May 03:32:50 03:38:08 18° 92° (E) 03:43:24 29.400- 29.500
KKS-1 31 May 03:38:15 03:42:21 37° 71° (ENE) 03:46:28 437.445
ISS 31 May 03:39:51 03:43:05 65° 221° (SW) 03:46:18 145.825
BEESAT 31 May 03:44:28 03:48:11 23° 265° (W) 03:51:57 436.000
YUBILEINY 31 May 03:50:33 03:59:22 88° 81° (E) 04:08:12 435.215
Oscar 19 31 May 03:54:32 03:58:28 23° 295° (WNW) 04:02:23 437.125/150
STARS 31 May 04:03:44 04:07:44 35° 71° (ENE) 04:11:45 437.465
JAS-2 31 May 04:04:07 04:08:16 16° 305° (NW) 04:12:12 435.910
MOZHAYETS 4 31 May 04:20:37 04:25:10 80° 75° (ENE) 04:29:45
Cosmos 2504 31 May 04:23:52 04:32:01 45° 76° (ENE) 04:40:23 435.465 / 435.565
ITAMSAT 1 31 May 04:43:32 04:48:33 48° 289° (WNW) 04:53:32 435.822/435.867
Cosmos 2491 31 May 04:44:32 04:53:23 79° 278° (W) 05:02:15 435.465 / 435.565
Gurwin Techsat 1B 31 May 04:48:02 04:51:35 18° 297° (WNW) 04:55:08 435.225
HORYU 2 31 May 04:58:23 05:00:49 14° 93° (E) 05:03:14 437.375
AO-85 31 May 05:07:28 05:12:34 42° 114° (ESE) 05:17:38 145.980
KKS-1 31 May 05:15:54 05:19:02 19° 266° (W) 05:22:09 437.445
AO-7 31 May 05:23:21 05:31:46 86° 289° (WNW) 05:40:09 29.400- 29.500
RS-15 31 May 05:25:18 05:31:34 16° 264° (W) 05:37:50 29.354- 29.394
STARS 31 May 05:41:03 05:44:10 19° 266° (W) 05:47:19 437.465
JUGNU 31 May 05:44:17 05:45:43 11° 173° (S) 05:47:08 437.505
YUBILEINY 31 May 05:49:51 05:54:54 17° 282° (WNW) 05:59:59 435.215
CUBESAT XI-V 31 May 05:56:15 06:00:56 89° 265° (W) 06:05:40 437.345
Cosmos 2504 31 May 06:17:30 06:25:12 39° 273° (W) 06:33:08 435.465 / 435.565
NOAA 18 31 May 06:31:59 06:36:18 23° 95° (E) 06:40:35 137.9125
HORYU 2 31 May 06:33:20 06:37:36 47° 288° (WNW) 06:41:51 437.375
CUTE-I 31 May 06:46:52 06:51:21 27° 96° (E) 06:55:50 437.470
BRITE-PL 31 May 06:46:59 06:51:18 30° 95° (E) 06:55:17 437.365/2234.400
Cosmos 2491 31 May 06:47:07 06:51:43 15° 299° (WNW) 06:56:20 435.465 / 435.565
AO-85 31 May 06:48:28 06:53:12 30° 311° (NW) 06:57:51 145.980
GOMX 1 31 May 06:52:57 06:55:14 14° 90° (E) 06:57:27 467.674
STRAND 1 31 May 07:11:27 07:16:16 44° 71° (ENE) 07:21:07 437.568
LilacSat-2 31 May 07:14:02 07:17:41 45° 99° (E) 07:21:20 437.200
AO-7 31 May 07:17:56 07:23:22 19° 308° (NW) 07:28:48 29.400- 29.500
NOAA 15 31 May 07:22:10 07:27:30 85° 106° (ESE) 07:32:45 137.62
DOVE 4 31 May 07:22:24 07:24:03 12° 90° (E) 07:25:40 437.250
JUGNU 31 May 07:31:46 07:33:49 12° 184° (S) 07:35:52 437.505
Cubesat XI-IV 31 May 07:41:08 07:46:32 87° 104° (ESE) 07:51:55 437.490
SRMSAT 31 May 07:45:33 07:46:38 10° 172° (S) 07:47:44 437.500
GONETS M04 31 May 07:46:29 07:52:37 21° 66° (ENE) 07:58:41
NOAA 18 31 May 08:11:55 08:17:05 43° 290° (WNW) 08:22:15 137.9125
SO-50 31 May 08:14:27 08:18:31 28° 49° (NE) 08:22:28 436.795
CUTE 1.7 + AOD 2 31 May 08:17:30 08:19:49 14° 92° (E) 08:22:07 437.475
O/OREOS (USA 219) 31 May 08:21:09 08:24:20 19° 101° (E) 08:27:30 437.305
HO-68 31 May 08:22:13 08:28:02 26° 95° (E) 08:33:49 435.675
BRITE-PL 31 May 08:25:35 08:29:38 26° 293° (WNW) 08:33:25 437.365/2234.400
CUTE-I 31 May 08:26:34 08:31:25 36° 291° (WNW) 08:36:17 437.470
GOMX 1 31 May 08:29:20 08:33:41 46° 287° (WNW) 08:37:47 467.674
AIST 1 31 May 08:42:37 08:46:57 75° 264° (W) 08:51:13
Cosmos 2499 31 May 08:46:55 08:54:31 32° 72° (ENE) 09:02:12 435.465 / 435.565
LilacSat-2 31 May 08:50:16 08:51:35 12° 294° (WNW) 08:52:53 437.200
STRAND 1 31 May 08:51:59 08:55:38 20° 267° (W) 08:59:19 437.568
DOVE 4 31 May 08:57:58 09:02:07 48° 287° (WNW) 09:06:06 437.250
CINEMA 3 31 May 08:59:00 09:02:59 44° 99° (E) 09:06:58 145.822/145.860
AUBIESAT-1 31 May 09:00:41 09:03:30 25° 103° (ESE) 09:06:21 437.475
PRISM 31 May 09:01:00 09:05:08 72° 258° (WSW) 09:09:20 437.425
NOAA 15 31 May 09:04:28 09:06:30 12° 300° (WNW) 09:08:31 137.62
M-CUBED/EXP-1 PRIME 31 May 09:10:44 09:13:52 45° 105° (ESE) 09:17:04 437.505
SEEDS 31 May 09:19:41 09:23:53 54° 100° (E) 09:28:03 437.485
CUBEBUG 2 31 May 09:21:44 09:25:08 24° 96° (E) 09:28:36 437.445
Cubesat XI-IV 31 May 09:23:50 09:25:50 12° 300° (WNW) 09:27:49 437.490
CANX-2 31 May 09:25:08 09:29:26 80° 282° (WNW) 09:33:43 2200.000
PCSat 31 May 09:28:01 09:33:26 84° 117° (ESE) 09:38:54 145.827
SRMSAT 31 May 09:32:45 09:34:53 12° 183° (S) 09:37:01 437.500
FUNcube-1 31 May 09:35:17 09:37:36 14° 93° (E) 09:39:56 145.935
UNISAT 6 31 May 09:40:13 09:42:31 14° 65° (ENE) 09:44:48 437.425
UWE-3 31 May 09:41:33 09:45:11 27° 96° (E) 09:48:51 435.000/436.395/437.385
GONETS M04 31 May 09:41:42 09:50:24 80° 266° (W) 09:59:04
TIGRISAT 31 May 09:46:03 09:48:36 16° 66° (ENE) 09:51:09 435.000
CUTE 1.7 + AOD 2 31 May 09:51:46 09:55:52 44° 287° (WNW) 09:59:56 437.475
SO-50 31 May 09:54:52 09:58:58 31° 247° (WSW) 10:02:57 436.795
DELFI C3 31 May 09:55:02 09:56:42 12° 92° (E) 09:58:22 145.870
AAUSAT CUBESAT 2 31 May 09:56:40 10:00:54 83° 104° (ESE) 10:05:06 437.432
COMPASS 1 31 May 09:58:14 10:02:28 75° 283° (WNW) 10:06:39 437.405
O/OREOS (USA 219) 31 May 09:59:11 10:03:26 38° 297° (WNW) 10:07:40 437.305
HO-68 31 May 10:09:04 10:16:03 56° 291° (WNW) 10:23:00 435.675
Oscar 11 31 May 10:11:53 10:16:05 46° 99° (E) 10:20:16 145.826/435.025
ANTELSAT 31 May 10:19:20 10:23:20 38° 72° (ENE) 10:27:17 437.575/2403.000
ZACube-1 31 May 10:34:01 10:38:15 76° 102° (ESE) 10:42:34 437.345
AUBIESAT-1 31 May 10:35:52 10:37:51 15° 297° (WNW) 10:39:50 437.475
CINEMA 3 31 May 10:37:38 10:39:45 14° 294° (WNW) 10:41:53 145.822/145.860
BEESAT 2 31 May 10:38:37 10:41:50 24° 113° (ESE) 10:45:06 435.950
Cosmos 2499 31 May 10:39:30 10:47:56 56° 270° (W) 10:56:31 435.465 / 435.565
CUSAT 1 31 May 10:50:31 10:56:04 28° 84° (E) 11:02:24 437.405
SEEDS 31 May 10:57:14 10:59:05 13° 295° (WNW) 11:00:58 437.485
CUBEBUG 2 31 May 10:58:15 11:01:42 25° 290° (WNW) 11:05:12 437.445
DUCHIFAT 1 31 May 11:02:38 11:05:31 18° 67° (ENE) 11:08:24 145.980
BEESAT 3 31 May 11:04:24 11:08:20 88° 301° (WNW) 11:12:18 437.485
FUNcube-1 31 May 11:10:01 11:14:01 43° 287° (WNW) 11:18:06 145.935
PCSat 31 May 11:14:18 11:17:31 16° 315° (NW) 11:20:46 145.827
UNISAT 6 31 May 11:14:39 11:18:50 47° 260° (W) 11:22:59 437.425
UWE-3 31 May 11:18:13 11:21:31 23° 291° (WNW) 11:24:51 435.000/436.395/437.385
TIGRISAT 31 May 11:20:50 11:24:58 43° 261° (W) 11:29:02 435.000
DANDE 31 May 11:23:10 11:27:38 22° 81° (E) 11:32:53 436.750
DELFI C3 31 May 11:27:56 11:31:47 45° 287° (WNW) 11:35:38 145.870
GONETS M04 31 May 11:42:05 11:45:41 13° 284° (WNW) 11:49:18
HUMSAT D 31 May 11:42:08 11:46:19 77° 284° (WNW) 11:50:32 437.325/437.525
QB50P1 31 May 11:44:08 11:48:18 61° 75° (ENE) 11:52:29 145.935-145.965
POPSAT HIP 1 31 May 11:44:10 11:48:19 60° 75° (ENE) 11:52:30 437.405
QB50P2 31 May 11:47:55 11:52:07 72° 76° (ENE) 11:56:21 145.880/145.840
Oscar 11 31 May 11:49:18 11:51:49 15° 294° (WNW) 11:54:18 145.826/435.025
POLYITAN 1 31 May 11:50:24 11:54:37 74° 75° (ENE) 11:58:50 437.675
ANTELSAT 31 May 11:57:22 12:00:09 17° 266° (W) 12:02:57 437.575/2403.000
NANOSAT C BR1 31 May 12:00:05 12:04:19 90° 33° (NNE) 12:08:32 145.865
DX 1 31 May 12:14:31 12:17:49 21° 95° (E) 12:21:05 434.975-435.025
CUBEBUG 1 31 May 12:15:54 12:19:39 27° 96° (E) 12:23:21 437.445
BEESAT 2 31 May 12:16:10 12:19:35 27° 309° (NW) 12:23:00 435.950
SPROUT 31 May 12:25:08 12:27:00 13° 92° (E) 12:28:53 437.525
JAS-2 31 May 12:25:47 12:32:39 40° 66° (ENE) 12:39:48 435.910
ESTCUBE 1 31 May 12:29:16 12:33:47 60° 101° (E) 12:38:14 437.505/2401.250
CUSAT 1 31 May 12:31:06 12:37:36 54° 285° (WNW) 12:45:19 437.405
VELOX 1 31 May 12:33:43 12:37:56 42° 99° (E) 12:42:05 145.980
DUCHIFAT 1 31 May 12:37:05 12:40:57 35° 262° (W) 12:44:48 145.980
50 SAT 31 May 12:37:07 12:40:48 55° 100° (E) 12:44:27 437.505
BUGSAT 1 31 May 12:37:10 12:41:21 78° 256° (WSW) 12:45:32 437.445
UKube-1 31 May 12:55:07 12:59:19 48° 100° (E) 13:03:29 .
DANDE 31 May 13:03:51 13:09:35 58° 284° (WNW) 13:16:59 436.750
AISAT 31 May 13:10:16 13:14:39 69° 285° (WNW) 13:19:00 437.250
AIST 2 31 May 13:21:56 13:26:03 88° 294° (WNW) 13:30:13 435.215
POPSAT HIP 1 31 May 13:23:59 13:24:27 10° 269° (W) 13:24:56 437.405
Oscar 19 31 May 13:29:48 13:34:49 53° 72° (ENE) 13:39:53 437.125/150
AO-85 31 May 13:41:37 13:45:21 23° 47° (NE) 13:48:50 145.980
DX 1 31 May 13:50:11 13:54:01 31° 290° (WNW) 13:57:51 434.975-435.025
CUBEBUG 1 31 May 13:52:18 13:55:48 24° 292° (WNW) 13:59:16 437.445
SPROUT 31 May 13:59:07 14:03:13 49° 286° (WNW) 14:07:18 437.525
TISAT 1 31 May 14:07:22 14:11:26 50° 100° (E) 14:15:28 437.305
ESTCUBE 1 31 May 14:07:56 14:10:03 13° 296° (WNW) 14:12:09 437.505/2401.250
JAS-2 31 May 14:10:30 14:17:28 43° 264° (W) 14:24:52 435.910
VELOX 1 31 May 14:11:12 14:14:02 17° 294° (WNW) 14:16:51 145.980
ITAMSAT 1 31 May 14:21:40 14:25:53 26° 67° (ENE) 14:30:10 435.822/435.867
Gurwin Techsat 1B 31 May 14:26:27 14:31:44 76° 75° (ENE) 14:37:04 435.225
AO-7 31 May 14:30:28 14:36:47 25° 56° (NE) 14:43:06 29.400- 29.500
UKube-1 31 May 14:32:36 14:34:57 14° 295° (WNW) 14:37:16 .
YUBILEINY 31 May 14:56:26 15:02:11 20° 79° (E) 15:07:56 435.215
Cosmos 2491 31 May 14:56:59 15:05:24 49° 76° (ENE) 15:13:44 435.465 / 435.565
AIST 2 31 May 15:04:16 15:05:10 11° 319° (NW) 15:06:05 435.215
Oscar 19 31 May 15:11:04 15:14:25 17° 267° (W) 15:17:48 437.125/150
SWISSCUBE 31 May 15:15:28 15:20:12 55° 101° (E) 15:24:53 437.505
AO-85 31 May 15:21:47 15:25:57 36° 247° (WSW) 15:29:46 145.980
RS-15 31 May 15:22:48 15:30:01 20° 98° (E) 15:37:25 29.354- 29.394
ITUPSAT 1 31 May 15:23:59 15:28:45 60° 101° (ESE) 15:33:30 437.325
BEESAT 31 May 15:44:37 15:49:26 82° 285° (WNW) 15:54:12 436.000
TISAT 1 31 May 15:44:45 15:46:38 13° 295° (WNW) 15:48:31 437.305
HORYU 2 31 May 15:56:11 15:57:54 12° 63° (ENE) 15:59:38 437.375
ITAMSAT 1 31 May 16:00:28 16:05:11 35° 262° (W) 16:09:55 435.822/435.867
Gurwin Techsat 1B 31 May 16:10:17 16:12:13 12° 270° (W) 16:14:09 435.225
MOZHAYETS 4 31 May 16:17:46 16:21:17 21° 94° (E) 16:24:47
AO-7 31 May 16:20:28 16:28:44 74° 254° (WSW) 16:37:05 29.400- 29.500
YUBILEINY 31 May 16:49:14 16:57:55 78° 278° (W) 17:06:39 435.215
Cosmos 2491 31 May 16:54:21 17:01:52 34° 275° (W) 17:09:22 435.465 / 435.565
SWISSCUBE 31 May 16:54:42 16:57:30 16° 296° (WNW) 17:00:20 437.505
Cosmos 2504 31 May 17:01:38 17:08:00 35° 86° (E) 17:14:41 435.465 / 435.565
ITUPSAT 1 31 May 17:03:28 17:06:04 15° 297° (WNW) 17:08:40 437.325
NOAA 15 31 May 17:04:02 17:06:53 15° 61° (ENE) 17:09:45 137.62
KKS-1 31 May 17:06:34 17:11:01 87° 286° (WNW) 17:15:26 437.445
Cubesat XI-IV 31 May 17:24:36 17:27:37 16° 62° (ENE) 17:30:40 437.490
RS-15 31 May 17:29:14 17:40:32 87° 119° (ESE) 17:52:32 29.354- 29.394
HORYU 2 31 May 17:29:33 17:33:54 62° 258° (WSW) 17:38:18 437.375
STARS 31 May 17:30:13 17:34:37 86° 104° (ESE) 17:38:58 437.465
MOZHAYETS 4 31 May 17:54:17 17:58:30 35° 289° (WNW) 18:02:43
CUBESAT XI-V 31 May 17:54:49 17:58:44 26° 95° (E) 18:02:36 437.345
BRITE-PL 31 May 17:54:54 18:00:00 35° 69° (ENE) 18:05:04 437.365/2234.400
LilacSat-2 31 May 17:55:27 17:58:09 19° 69° (ENE) 18:00:51 437.200
NOAA 18 31 May 17:56:41 18:01:41 39° 69° (ENE) 18:06:43 137.9125
GOMX 1 31 May 17:58:34 18:02:10 18° 65° (ENE) 18:05:42 467.674
CUTE-I 31 May 18:07:12 18:12:04 38° 69° (ENE) 18:16:57 437.470
PCSat 31 May 18:17:26 18:22:42 49° 58° (ENE) 18:27:55 145.827
AO-7 31 May 18:19:52 18:22:45 12° 271° (W) 18:25:38 29.400- 29.500
DOVE 4 31 May 18:25:48 18:28:38 15° 65° (ENE) 18:31:23 437.250
O/OREOS (USA 219) 31 May 18:31:24 18:35:18 29° 62° (ENE) 18:39:10 437.305
NOAA 15 31 May 18:40:44 18:46:02 71° 257° (WSW) 18:51:21 137.62
HO-68 31 May 18:51:11 18:55:37 18° 56° (ENE) 19:00:04 435.675
YUBILEINY 31 May 18:51:59 18:56:15 14° 299° (WNW) 19:00:33 435.215
Cosmos 2504 31 May 18:54:27 19:01:11 40° 286° (WNW) 19:08:19 435.465 / 435.565
BEESAT 2 31 May 18:58:49 19:00:28 12° 44° (NE) 19:02:05 435.950
Cubesat XI-IV 31 May 19:01:50 19:07:06 67° 258° (WSW) 19:12:24 437.490
BEESAT 3 31 May 19:23:13 19:26:48 32° 53° (NE) 19:30:22 437.485
STRAND 1 31 May 19:24:26 19:27:44 17° 92° (E) 19:31:02 437.568
PHONESAT 2.4 31 May 19:27:12 19:28:30 12° 145° (SE) 19:29:48 2401.200-2431.200
LilacSat-2 31 May 19:29:04 19:32:16 26° 264° (W) 19:35:29 437.200
CUBESAT XI-V 31 May 19:31:59 19:36:04 30° 291° (WNW) 19:40:07 437.345
BRITE-PL 31 May 19:33:22 19:38:23 32° 265° (W) 19:43:24 437.365/2234.400
GOMX 1 31 May 19:34:24 19:39:47 58° 260° (W) 19:45:02 467.674
NOAA 18 31 May 19:37:56 19:42:24 26° 264° (W) 19:46:54 137.9125
RS-15 31 May 19:44:39 19:54:39 32° 325° (NW) 20:05:06 29.354- 29.394
AUBIESAT-1 31 May 19:45:17 19:48:48 31° 67° (ENE) 19:52:07 437.475
CUTE-I 31 May 19:47:54 19:52:11 25° 265° (W) 19:56:30 437.470
M-CUBED/EXP-1 PRIME 31 May 19:55:35 19:59:33 52° 70° (ENE) 20:03:14 437.505
CINEMA 3 31 May 19:58:56 20:03:12 37° 72° (ENE) 20:07:19 145.822/145.860
DOVE 4 31 May 20:00:41 20:05:50 64° 259° (W) 20:10:47 437.250
PCSat 31 May 20:01:41 20:05:43 21° 254° (WSW) 20:09:42 145.827
SEEDS 31 May 20:10:10 20:13:48 30° 71° (ENE) 20:17:29 437.485
O/OREOS (USA 219) 31 May 20:10:57 20:14:33 24° 258° (WSW) 20:18:09 437.305
CANX-2 31 May 20:16:11 20:20:18 58° 75° (ENE) 20:24:28 2200.000
ISS 31 May 20:18:03 20:21:18 84° 142° (SE) 20:24:34 145.825
CUBEBUG 2 31 May 20:19:12 20:22:05 18° 68° (ENE) 20:24:56 437.445
BEESAT 2 31 May 20:34:48 20:38:46 72° 242° (WSW) 20:42:43 435.950
HO-68 31 May 20:35:15 20:42:25 87° 256° (WSW) 20:49:37 435.675
UWE-3 31 May 20:37:53 20:40:54 19° 68° (ENE) 20:43:54 435.000/436.395/437.385
CUTE 1.7 + AOD 2 31 May 20:42:28 20:46:39 78° 258° (WSW) 20:50:54 437.475
PRISM 31 May 20:45:07 20:47:50 17° 94° (E) 20:50:33 437.425
AAUSAT CUBESAT 2 31 May 20:45:21 20:49:15 43° 73° (ENE) 20:53:12 437.432
GONETS M04 31 May 20:46:31 20:53:07 25° 82° (E) 20:59:42
COMPASS 1 31 May 20:47:14 20:51:18 58° 75° (ENE) 20:55:24 437.405
BEESAT 3 31 May 21:01:25 21:04:16 19° 249° (WSW) 21:07:07 437.485
PHONESAT 2.4 31 May 21:01:43 21:04:48 57° 159° (SSE) 21:07:54 2401.200-2431.200
STRAND 1 31 May 21:02:11 21:07:12 53° 288° (WNW) 21:12:11 437.568
Oscar 11 31 May 21:05:23 21:09:06 29° 70° (ENE) 21:12:51 145.826/435.025
AIST 1 31 May 21:09:54 21:14:16 69° 95° (E) 21:18:39
AUBIESAT-1 31 May 21:20:32 21:23:18 18° 259° (W) 21:25:56 437.475
Cosmos 2499 31 May 21:23:45 21:29:06 22° 81° (E) 21:34:41 435.465 / 435.565
CUSAT 1 31 May 21:28:03 21:33:05 19° 62° (ENE) 21:37:30 437.405
ZACube-1 31 May 21:28:24 21:32:26 47° 74° (ENE) 21:36:25 437.345
M-CUBED/EXP-1 PRIME 31 May 21:33:08 21:34:15 11° 261° (W) 21:35:20 437.505
CINEMA 3 31 May 21:37:01 21:40:24 20° 266° (W) 21:43:41 145.822/145.860
AIST 2 31 May 21:44:44 21:48:37 37° 54° (NE) 21:52:28 435.215
SEEDS 31 May 21:46:28 21:49:32 20° 266° (W) 21:52:38 437.485
CUBEBUG 2 31 May 21:54:27 21:58:27 36° 262° (W) 22:02:23 437.445
CANX-2 31 May 21:55:52 21:56:31 10° 270° (W) 21:57:11 2200.000
ISS 31 May 21:55:57 21:58:07 16° 338° (NNW) 22:00:17 145.825
DANDE 31 May 22:03:03 22:09:13 22° 63° (ENE) 22:14:48 436.750
FUNcube-1 31 May 22:03:45 22:07:55 69° 259° (WSW) 22:12:04 145.935
RS-15 31 May 22:05:05 22:12:45 18° 360° (N) 22:20:33 29.354- 29.394
DELFI C3 31 May 22:11:55 22:15:53 81° 75° (ENE) 22:19:53 145.870
UWE-3 31 May 22:13:20 22:17:09 32° 262° (W) 22:20:56 435.000/436.395/437.385
PRISM 31 May 22:19:26 22:23:15 35° 289° (WNW) 22:27:02 437.425
AAUSAT CUBESAT 2 31 May 22:22:50 22:24:57 14° 268° (W) 22:27:04 437.432
COMPASS 1 31 May 22:27:01 22:27:13 10° 270° (W) 22:27:25 437.405
HO-68 31 May 22:27:49 22:31:00 13° 271° (W) 22:34:12 435.675
SO-50 31 May 22:29:29 22:31:30 12° 107° (ESE) 22:33:31 436.795
HUMSAT D 31 May 22:31:48 22:35:47 58° 75° (ENE) 22:39:49 437.325/437.525
PHONESAT 2.4 31 May 22:38:27 22:41:34 59° 356° (N) 22:44:40 2401.200-2431.200
GONETS M04 31 May 22:40:25 22:49:08 66° 280° (W) 22:57:52
Oscar 11 31 May 22:41:55 22:45:14 22° 266° (W) 22:48:34 145.826/435.025
ZACube-1 31 May 23:07:07 23:08:57 13° 268° (W) 23:10:48 437.345
UNISAT 6 31 May 23:07:28 23:11:28 36° 98° (E) 23:15:33 437.425
CUSAT 1 31 May 23:08:53 23:16:13 72° 265° (W) 23:21:58 437.405
DX 1 31 May 23:09:19 23:12:03 16° 65° (ENE) 23:14:46 434.975-435.025
CUBEBUG 1 31 May 23:10:49 23:14:06 21° 67° (ENE) 23:17:24 437.445
TIGRISAT 31 May 23:13:19 23:17:24 39° 99° (E) 23:21:32 435.000
50 SAT 31 May 23:14:38 23:17:20 20° 69° (ENE) 23:20:03 437.505
